This is the latest recevied weather packets stored in our database for station/object KD0RII. If no packets are shown the sender has not sent any weather packets the latest 10 day(s).
| Time | Temp. | Humidity | Pressure | Rain* | Wind** | Luminosity | Snow |
|---|---|---|---|---|---|---|---|
| 1777563291 | 17.78° C | 55% | 1020.9 hPa | 0 mm | - | 343 W/m² | - |
| 1777562987 | 17.78° C | 59% | 1020.9 hPa | 0 mm | - | 272 W/m² | - |
| 1777562683 | 17.78° C | 54% | 1021.1 hPa | 0 mm | - | 510 W/m² | - |
| 1777562383 | 18.33° C | 55% | 1021 hPa | 0 mm | - | 376 W/m² | - |
| 1777562079 | 18.33° C | 58% | 1021.1 hPa | 0 mm | - | 506 W/m² | - |
| 1777561776 | 17.78° C | 61% | 1021.1 hPa | 0 mm | - | 460 W/m² | - |
| 1777561472 | 17.78° C | 62% | 1021.1 hPa | 0 mm | - | 315 W/m² | - |
| 1777561167 | 17.78° C | 64% | 1021.2 hPa | 0 mm | - | 438 W/m² | - |
| 1777560862 | 16.67° C | 68% | 1021.3 hPa | 0 mm | - | 458 W/m² | - |
| 1777560560 | 15.56° C | 70% | 1021.5 hPa | 0 mm | - | 419 W/m² | - |
| 1777560258 | 15° C | 77% | 1021.4 hPa | 0 mm | - | 268 W/m² | - |
| 1777559955 | 13.33° C | 79% | 1021.2 hPa | 0 mm | - | 399 W/m² | - |
| 1777559655 | 12.78° C | 87% | 1021.4 hPa | 0 mm | - | 206 W/m² | - |
| 1777559354 | 12.78° C | 91% | 1021.5 hPa | 0 mm | - | 211 W/m² | - |
| 1777559049 | 12.78° C | 94% | 1021.6 hPa | 0 mm | - | 229 W/m² | - |
| 1777558744 | 12.22° C | 94% | 1021.5 hPa | 0 mm | - | 283 W/m² | - |
| 1777558440 | 12.78° C | 94% | 1021.4 hPa | 0 mm | - | 203 W/m² | - |
| 1777558136 | 12.22° C | 95% | 1021.5 hPa | 0 mm | - | 192 W/m² | - |
| 1777557833 | 11.67° C | 95% | 1021.3 hPa | 0 mm | - | 369 W/m² | - |
| 1777557530 | 11.11° C | 95% | 1021.4 hPa | 0 mm | - | 150 W/m² | - |
| 1777557227 | 10.56° C | 95% | 1021.3 hPa | 0 mm | - | 264 W/m² | - |
| 1777556922 | 10° C | 95% | 1021.1 hPa | 0 mm | - | 177 W/m² | - |
| 1777556618 | 10° C | 95% | 1021.1 hPa | 0 mm | - | 124 W/m² | - |
| 1777556312 | 10° C | 95% | 1021.2 hPa | 0 mm | - | 66 W/m² | - |
| 1777556010 | 10° C | 95% | 1021.1 hPa | 0 mm | - | 109 W/m² | - |
* Rain latest hour (hover to see other rain measurements)
** Current wind speed in m/s (hover to see current wind gust speed)